Location: Brusselsch Zeekanaal
(50.8667°N, 4.3667°E)
Time: 10:29:58
(UTC+00:00)

Cosmos 1939 Rocket - Pass Details

Date: 08 November 2025
Orbit: 491 x 528 km, 97.5° (Epoch: 09 December)

Event Time Altitude Azimuth Distance (km) Brightness Sun altitude
Rises 05:13:55 0° 5° (N) 2,690 6.3 -14.8°
Reaches altitude 10° 05:16:12 10° 355° (N) 1,795 5.3 -14.4°
Maximum altitude 05:19:36 30° 293° (WNW) 969 3.5 -13.9°
Enters shadow 05:22:34 12° 235° (SW) 1,625 4.8 -13.4°
